This is the latest recevied weather packets stored in our database for station/object WB4ROX. If no packets are shown the sender has not sent any weather packets the latest 10 day(s).
| Time | Temp. | Humidity | Pressure | Rain* | Wind** | Luminosity | Snow |
|---|---|---|---|---|---|---|---|
| 1777931997 | 16.67° C | 40% | 1017.4 hPa | 0 mm | - | 96 W/m² | - |
| 1777931693 | 16.67° C | 40% | 1017.4 hPa | 0 mm | - | 80 W/m² | - |
| 1777931390 | 16.67° C | 40% | 1017.4 hPa | 0 mm | - | 81 W/m² | - |
| 1777931086 | 16.67° C | 38% | 1017.6 hPa | 0 mm | - | 96 W/m² | - |
| 1777930783 | 16.67° C | 38% | 1017.5 hPa | 0 mm | - | 132 W/m² | - |
| 1777930479 | 16.67° C | 38% | 1017.5 hPa | 0 mm | - | 113 W/m² | - |
| 1777930177 | 16.67° C | 38% | 1017.3 hPa | 0 mm | - | 131 W/m² | - |
| 1777929872 | 17.22° C | 39% | 1017.6 hPa | 0 mm | - | 90 W/m² | - |
| 1777929571 | 17.22° C | 38% | 1017.6 hPa | 0 mm | - | 106 W/m² | - |
| 1777929266 | 17.22° C | 38% | 1017.6 hPa | 0 mm | - | 105 W/m² | - |
| 1777928964 | 17.22° C | 40% | 1017.6 hPa | 0 mm | - | 138 W/m² | - |
| 1777928661 | 18.33° C | 39% | 1017.6 hPa | 0 mm | - | 126 W/m² | - |
| 1777928358 | 17.78° C | 38% | 1017.5 hPa | 0 mm | - | 558 W/m² | - |
| 1777928056 | 17.78° C | 38% | 1017.7 hPa | 0 mm | - | 439 W/m² | - |
| 1777927754 | 17.78° C | 38% | 1017.9 hPa | 0 mm | - | 178 W/m² | - |
| 1777927452 | 18.33° C | 36% | 1018.1 hPa | 0 mm | - | 189 W/m² | - |
| 1777927151 | 18.33° C | 37% | 1017.8 hPa | 0 mm | - | 152 W/m² | - |
| 1777926848 | 18.33° C | 36% | 1017.8 hPa | 0 mm | - | 690 W/m² | - |
| 1777926543 | 19.44° C | 35% | 1017.8 hPa | 0 mm | - | 132 W/m² | - |
| 1777926240 | 18.89° C | 36% | 1017.9 hPa | 0 mm | - | 710 W/m² | - |
| 1777925937 | 18.89° C | 37% | 1017.9 hPa | 0 mm | - | 471 W/m² | - |
| 1777925634 | 17.78° C | 39% | 1017.9 hPa | 0 mm | - | 722 W/m² | - |
| 1777925332 | 17.78° C | 39% | 1018.1 hPa | 0 mm | - | 731 W/m² | - |
| 1777925028 | 17.78° C | 38% | 1018.2 hPa | 0 mm | - | 168 W/m² | - |
| 1777924725 | 16.67° C | 42% | 1018.2 hPa | 0 mm | - | 714 W/m² | - |
* Rain latest hour (hover to see other rain measurements)
** Current wind speed in m/s (hover to see current wind gust speed)